Погода в Лагаве

Филиппины     16°48′03″N   121°07′13″E
темп.,
°C
ветер,
м/с
пор.,
м/с
влажн.,
%
обл.,
%
осадки,
мм/ч
давл.,
гПа
погр.,
м
24 сентября, пт
пт2423:00+16з11965 2.4 101721
02:00+16зсз11976 2.8 101616
05:00+16зсз119713 0.0 101617
08:00+20в11875 0.0 1017344
11:00+25в32580 0.0 10151203
14:00+25в32597 0.1 10121271
17:00+20в128917 1.7 1013275
20:00+18зсз019890 2.6 101534
25 сентября, сб
сб2523:00+17юз019943 0.3 101551
02:00+17з119827 0.4 101430
05:00+16з119515 0.0 101419
08:00+20всв1183100 0.1 1014249
11:00+24в3258100 0.0 10131054
14:00+23в227896 2.4 1011680
17:00+20в1194100 3.2 1012149
20:00+18зсз019758 4.4 101422
26 сентября, вс
вс2623:00+18з1198100 0.1 101453
02:00+17з119790 0.1 101323
05:00+16зсз119715 0.0 101319
08:00+21в118227 0.0 1013307
11:00+25в225599 0.0 10121171
14:00+24в2270100 0.5 1010892
17:00+20в1195100 3.6 1011164
20:00+18з1197100 7.6 101322
27 сентября, пн
пн2723:00+18зсз119884 0.3 101318
02:00+17з119790 0.3 101218
05:00+16зсз1195100 0.0 101218
08:00+20в1183100 0.0 1012317
11:00+26в2256100 0.0 10101295
14:00+23в2281100 1.5 1009669
17:00+20всв009567 3.9 1009112
20:00+18з119760 4.6 101214
28 сентября, вт
вт2823:00+17з119878 0.0 101218
02:00+18з119591 0.1 101015
05:00+16з119599 0.0 101112
08:00+21всв0179100 0.0 1011299
11:00+26в225473 0.0 10091395
14:00+24вюв227485 0.8 1008862
17:00+20с009494 5.6 100930
20:00+19зюз019652 7.9 101221